| time (UTC) | temp F | wind direction | speed knots | gust knots | rain 1hr in | rain 24hr in | rain mn in | humidity % | barometer mb |
| 20260506120015 | 64 | 56 | 4.3 | 9.6 | 0.00 | 0.00 | 0.00 | 41 | 1012.8 |
| 20260506115015 | 64 | 314 | 2.6 | 7.0 | 0.00 | 0.00 | 0.00 | 41 | 1012.8 |
| 20260506114015 | 63 | 89 | 4.3 | 10.4 | 0.00 | 0.00 | 0.00 | 42 | 1012.9 |
| 20260506113015 | 63 | 83 | 3.5 | 9.6 | 0.00 | 0.00 | 0.00 | 44 | 1013.0 |
| 20260506112015 | 63 | 107 | 3.5 | 8.7 | 0.00 | 0.00 | 0.00 | 45 | 1013.0 |
| 20260506111015 | 62 | 135 | 2.6 | 6.1 | 0.00 | 0.00 | 0.00 | 46 | 1013.1 |
| 20260506110015 | 61 | 119 | 4.3 | 8.7 | 0.00 | 0.00 | 0.00 | 46 | 1013.1 |
| 20260506105035 | 62 | 67 | 2.6 | 6.1 | 0.00 | 0.00 | 0.00 | 44 | 1013.2 |
| 20260506104055 | 62 | 88 | 2.6 | 7.0 | 0.00 | 0.00 | 0.00 | 46 | 1013.3 |
| 20260506103015 | 60 | 58 | 1.7 | 7.0 | 0.00 | 0.00 | 0.00 | 48 | 1013.2 |
| 20260506102015 | 61 | 91 | 2.6 | 7.0 | 0.00 | 0.00 | 0.00 | 49 | 1013.3 |
| 20260506101015 | 60 | 2 | 2.6 | 8.7 | 0.00 | 0.00 | 0.00 | 49 | 1013.5 |
| 20260506100015 | 60 | 79 | 1.7 | 7.0 | 0.00 | 0.00 | 0.00 | 49 | 1013.6 |
| 20260506095015 | 59 | 79 | 3.5 | 8.7 | 0.00 | 0.00 | 0.00 | 52 | 1013.6 |
| 20260506094015 | 59 | 79 | 2.6 | 7.0 | 0.00 | 0.00 | 0.00 | 50 | 1013.5 |
| 20260506093015 | 59 | 44 | 3.5 | 7.8 | 0.00 | 0.00 | 0.00 | 55 | 1013.5 |
| 20260506092015 | 58 | 126 | 2.6 | 7.0 | 0.00 | 0.00 | 0.00 | 58 | 1013.6 |
| 20260506091015 | 57 | 45 | 3.5 | 8.7 | 0.00 | 0.00 | 0.00 | 60 | 1013.6 |
| 20260506090015 | 56 | 65 | 2.6 | 7.8 | 0.00 | 0.00 | 0.00 | 61 | 1013.5 |
| 20260506085015 | 55 | 35 | 3.5 | 7.0 | 0.00 | 0.00 | 0.00 | 63 | 1013.6 |
| 20260506084015 | 54 | 53 | 3.5 | 7.0 | 0.00 | 0.00 | 0.00 | 64 | 1013.6 |
| 20260506083015 | 53 | 59 | 2.6 | 6.1 | 0.00 | 0.00 | 0.00 | 66 | 1013.6 |
| 20260506082015 | 53 | 82 | 3.5 | 7.8 | 0.00 | 0.00 | 0.00 | 67 | 1013.5 |
| 20260506081015 | 52 | 50 | 2.6 | 8.7 | 0.00 | 0.00 | 0.00 | 68 | 1013.4 |
| 20260506073015 | 50 | 49 | 2.6 | 6.1 | 0.00 | 0.00 | 0.00 | 71 | 1013.4 |
| 20260506072015 | 50 | 35 | 3.5 | 5.2 | 0.00 | 0.00 | 0.00 | 72 | 1013.4 |
| 20260506071056 | 50 | 57 | 3.5 | 5.2 | 0.00 | 0.00 | 0.00 | 72 | 1013.4 |
| 20260506062035 | 46 | 56 | 2.6 | 6.1 | 0.00 | 0.00 | 0.00 | 79 | 1012.9 |
| 20260506061015 | 46 | 58 | 2.6 | 6.1 | 0.00 | 0.00 | 0.00 | 79 | 1012.8 |
| 20260506051015 | 45 | 46 | 3.5 | 6.1 | 0.00 | 0.00 | 0.00 | 81 | 1012.4 |
| 20260506045016 | 45 | 43 | 2.6 | 5.2 | 0.00 | 0.00 | 0.00 | 80 | 1012.2 |
| 20260506044016 | 45 | 46 | 3.5 | 5.2 | 0.00 | 0.00 | 0.00 | 80 | 1012.1 |
| 20260506043035 | 46 | 51 | 2.6 | 6.1 | 0.00 | 0.00 | 0.00 | 80 | 1012.2 |
| 20260506042016 | 46 | 49 | 3.5 | 6.1 | 0.00 | 0.00 | 0.00 | 79 | 1012.3 |
| 20260506041015 | 46 | 51 | 4.3 | 7.8 | 0.00 | 0.00 | 0.00 | 78 | 1012.3 |
| 20260506040015 | 46 | 69 | 2.6 | 6.1 | 0.00 | 0.00 | 0.00 | 78 | 1012.4 |
| 20260506035016 | 46 | 47 | 3.5 | 6.1 | 0.00 | 0.00 | 0.00 | 77 | 1012.4 |
| 20260506034016 | 46 | 53 | 3.5 | 6.1 | 0.00 | 0.00 | 0.00 | 76 | 1012.5 |
| 20260506033015 | 47 | 64 | 2.6 | 5.2 | 0.00 | 0.00 | 0.00 | 76 | 1012.6 |
| 20260506032015 | 47 | 50 | 1.7 | 6.1 | 0.00 | 0.00 | 0.00 | 75 | 1012.6 |
| 20260506031016 | 47 | 44 | 3.5 | 7.8 | 0.00 | 0.00 | 0.00 | 75 | 1012.6 |
| 20260506030016 | 47 | 53 | 2.6 | 6.1 | 0.00 | 0.00 | 0.00 | 73 | 1012.5 |
| 20260506025016 | 48 | 55 | 1.7 | 4.3 | 0.00 | 0.00 | 0.00 | 72 | 1012.6 |
| 20260506024016 | 48 | 65 | 1.7 | 4.3 | 0.00 | 0.00 | 0.00 | 72 | 1012.5 |
| 20260506023016 | 49 | 43 | 3.5 | 5.2 | 0.00 | 0.00 | 0.00 | 71 | 1012.5 |
| 20260506022016 | 49 | 55 | 1.7 | 6.1 | 0.00 | 0.00 | 0.00 | 69 | 1012.7 |
| 20260506021016 | 49 | 73 | 2.6 | 5.2 | 0.00 | 0.00 | 0.00 | 69 | 1012.7 |
| 20260506020015 | 49 | 75 | 2.6 | 5.2 | 0.00 | 0.00 | 0.00 | 69 | 1012.7 |
| 20260506015035 | 50 | 47 | 2.6 | 4.3 | 0.00 | 0.00 | 0.00 | 68 | 1012.9 |
| 20260506014016 | 50 | 46 | 1.7 | 2.6 | 0.00 | 0.00 | 0.00 | 67 | 1012.8 |
| 20260506013016 | 50 | 39 | 1.7 | 2.6 | 0.00 | 0.00 | 0.00 | 66 | 1012.8 |
| 20260506012016 | 50 | 0.0 | 0.0 | 0.00 | 0.00 | 0.00 | 66 | 1012.8 | |
| 20260506011015 | 50 | 0.0 | 0.9 | 0.00 | 0.00 | 0.00 | 64 | 1012.9 | |
| 20260506010015 | 51 | 38 | 0.9 | 3.5 | 0.00 | 0.00 | 0.00 | 63 | 1013.0 |
| 20260506005016 | 51 | 59 | 1.7 | 3.5 | 0.00 | 0.00 | 0.00 | 63 | 1013.0 |
| 20260506004035 | 51 | 79 | 1.7 | 4.3 | 0.00 | 0.00 | 0.00 | 63 | 1012.9 |
| 20260506003015 | 52 | 51 | 2.6 | 6.1 | 0.00 | 0.00 | 0.00 | 62 | 1012.9 |
| 20260506002016 | 52 | 73 | 2.6 | 5.2 | 0.00 | 0.00 | 0.00 | 62 | 1013.2 |
| 20260506001016 | 52 | 44 | 2.6 | 4.3 | 0.00 | 0.00 | 0.00 | 62 | 1013.1 |
| 20260506000015 | 52 | 39 | 2.6 | 4.3 | 0.00 | 0.00 | 0.00 | 61 | 1013.1 |
| 20260505235015 | 52 | 44 | 3.5 | 5.2 | 0.00 | 0.00 | 0.00 | 61 | 1013.1 |
| 20260505234015 | 52 | 49 | 2.6 | 6.1 | 0.00 | 0.00 | 0.00 | 61 | 1013.0 |
| 20260505233035 | 52 | 39 | 2.6 | 5.2 | 0.00 | 0.00 | 0.00 | 61 | 1013.0 |
| 20260505232015 | 53 | 35 | 2.6 | 5.2 | 0.00 | 0.00 | 0.00 | 60 | 1013.0 |
| 20260505231015 | 53 | 47 | 3.5 | 5.2 | 0.00 | 0.00 | 0.00 | 58 | 1012.9 |
| 20260505230015 | 53 | 46 | 3.5 | 7.8 | 0.00 | 0.00 | 0.00 | 56 | 1012.9 |
| 20260505225015 | 54 | 47 | 4.3 | 6.1 | 0.00 | 0.00 | 0.00 | 54 | 1013.0 |
| 20260505224015 | 55 | 72 | 1.7 | 5.2 | 0.00 | 0.00 | 0.00 | 53 | 1013.0 |
| 20260505223015 | 55 | 27 | 1.7 | 2.6 | 0.00 | 0.00 | 0.00 | 51 | 1012.7 |
| 20260505222035 | 56 | 27 | 0.9 | 1.7 | 0.00 | 0.00 | 0.00 | 49 | 1012.9 |
| 20260505221035 | 56 | 27 | 0.9 | 1.7 | 0.00 | 0.00 | 0.00 | 48 | 1012.8 |
| 20260505220015 | 56 | 351 | 0.9 | 2.6 | 0.00 | 0.00 | 0.00 | 47 | 1012.7 |
| 20260505215035 | 57 | 329 | 0.9 | 2.6 | 0.00 | 0.00 | 0.00 | 46 | 1012.8 |
| 20260505214015 | 57 | 19 | 0.0 | 1.7 | 0.00 | 0.00 | 0.00 | 45 | 1012.9 |
| 20260505213015 | 57 | 332 | 0.9 | 2.6 | 0.00 | 0.00 | 0.00 | 44 | 1013.0 |
| 20260505212015 | 58 | 308 | 1.7 | 5.2 | 0.00 | 0.00 | 0.00 | 44 | 1013.1 |
| 20260505211015 | 58 | 315 | 0.9 | 3.5 | 0.00 | 0.00 | 0.00 | 43 | 1013.0 |
| 20260505210015 | 58 | 325 | 1.7 | 2.6 | 0.00 | 0.00 | 0.00 | 43 | 1013.0 |
| 20260505205015 | 59 | 337 | 0.9 | 2.6 | 0.00 | 0.00 | 0.00 | 42 | 1013.0 |
| 20260505204015 | 59 | 343 | 0.9 | 5.2 | 0.00 | 0.00 | 0.00 | 40 | 1012.8 |
| 20260505203015 | 60 | 332 | 1.7 | 4.3 | 0.00 | 0.00 | 0.00 | 39 | 1012.7 |
| 20260505202015 | 60 | 1 | 1.7 | 5.2 | 0.00 | 0.00 | 0.00 | 39 | 1012.6 |
| 20260505201035 | 60 | 357 | 1.7 | 4.3 | 0.00 | 0.00 | 0.00 | 39 | 1012.4 |
| 20260505200015 | 60 | 351 | 2.6 | 7.8 | 0.00 | 0.00 | 0.00 | 39 | 1012.3 |
| 20260505195035 | 60 | 353 | 2.6 | 6.1 | 0.00 | 0.00 | 0.00 | 37 | 1012.2 |
| 20260505194015 | 61 | 350 | 2.6 | 7.0 | 0.00 | 0.00 | 0.00 | 37 | 1012.0 |
| 20260505193015 | 61 | 337 | 2.6 | 5.2 | 0.00 | 0.00 | 0.00 | 37 | 1011.9 |
| 20260505192016 | 61 | 5 | 3.5 | 7.8 | 0.00 | 0.00 | 0.00 | 37 | 1011.7 |
| 20260505191015 | 62 | 341 | 2.6 | 7.0 | 0.00 | 0.00 | 0.00 | 37 | 1011.7 |
| 20260505190015 | 63 | 337 | 3.5 | 7.0 | 0.00 | 0.00 | 0.00 | 36 | 1011.6 |
| 20260505185015 | 63 | 321 | 3.5 | 7.8 | 0.00 | 0.00 | 0.00 | 35 | 1011.6 |
| 20260505184055 | 64 | 321 | 2.6 | 9.6 | 0.00 | 0.00 | 0.00 | 34 | 1011.4 |
| 20260505183036 | 64 | 334 | 3.5 | 7.0 | 0.00 | 0.00 | 0.00 | 34 | 1011.2 |
| 20260505182015 | 65 | 318 | 3.5 | 7.8 | 0.00 | 0.00 | 0.00 | 34 | 1011.2 |
| 20260505181015 | 65 | 349 | 4.3 | 10.4 | 0.00 | 0.00 | 0.00 | 34 | 1011.2 |
| 20260505180016 | 65 | 329 | 2.6 | 7.8 | 0.00 | 0.00 | 0.00 | 35 | 1011.1 |
| 20260505175015 | 64 | 287 | 2.6 | 8.7 | 0.00 | 0.00 | 0.00 | 35 | 1011.0 |
| 20260505174015 | 63 | 313 | 3.5 | 7.8 | 0.00 | 0.00 | 0.00 | 36 | 1011.0 |
| 20260505173016 | 63 | 322 | 3.5 | 9.6 | 0.00 | 0.00 | 0.00 | 36 | 1011.0 |
| 20260505172016 | 64 | 332 | 3.5 | 7.8 | 0.00 | 0.00 | 0.00 | 36 | 1011.0 |
| 20260505171015 | 64 | 303 | 4.3 | 9.6 | 0.00 | 0.00 | 0.00 | 35 | 1011.2 |
| 20260505170015 | 65 | 295 | 4.3 | 11.3 | 0.00 | 0.00 | 0.00 | 34 | 1011.2 |
| 20260505165015 | 65 | 312 | 4.3 | 9.6 | 0.00 | 0.00 | 0.00 | 34 | 1011.2 |
| 20260505164016 | 65 | 329 | 3.5 | 8.7 | 0.00 | 0.00 | 0.00 | 33 | 1011.1 |
| 20260505163015 | 65 | 310 | 3.5 | 7.8 | 0.00 | 0.00 | 0.00 | 32 | 1011.0 |
| 20260505162016 | 66 | 307 | 7.0 | 12.2 | 0.00 | 0.00 | 0.00 | 31 | 1011.1 |
| 20260505161055 | 66 | 349 | 4.3 | 11.3 | 0.00 | 0.00 | 0.00 | 32 | 1011.1 |
| 20260505153016 | 67 | 277 | 4.3 | 11.3 | 0.00 | 0.00 | 0.00 | 31 | 1011.3 |
| 20260505152016 | 67 | 311 | 2.6 | 8.7 | 0.00 | 0.00 | 0.00 | 29 | 1011.3 |
| 20260505151016 | 66 | 272 | 4.3 | 11.3 | 0.00 | 0.00 | 0.00 | 31 | 1011.4 |
| 20260505125015 | 64 | 252 | 4.3 | 8.7 | 0.00 | 0.00 | 0.00 | 36 | 1012.3 |
| 20260505124016 | 64 | 263 | 5.2 | 10.4 | 0.00 | 0.00 | 0.00 | 38 | 1012.3 |
| 20260505123036 | 63 | 292 | 3.5 | 10.4 | 0.00 | 0.00 | 0.00 | 40 | 1012.3 |
| 20260505122016 | 63 | 276 | 4.3 | 10.4 | 0.00 | 0.00 | 0.00 | 41 | 1012.4 |
| 20260505121016 | 62 | 268 | 5.2 | 11.3 | 0.00 | 0.00 | 0.00 | 41 | 1012.5 |